Cloud_Cover
100 99 100 100 100 100 100 100 100 58 40 2 4 0 1 0 2 4 5 0 22 4 0 0 0 0 0 0 0 0 3 1 5 32 93 8 74 100 100 100 100 100 100 100 73 95 100 100 91
100 100 100 100 100 100 100 100 100 96 69 8 1 1 1 0 5 0 0 2 5 0 0 23 0 0 0 0 0 0 0 4 21 5 81 94 70 93 99 78 100 100 100 100 100 62 89 56 10
100 100 100 100 100 100 100 100 100 16 93 8 70 50 2 0 4 5 0 41 49 0 22 22 0 0 0 0 0 0 0 0 0 5 47 87 96 62 96 100 42 96 47 67 6 11 39 13 20
100 100 100 100 100 100 100 100 100 58 100 24 32 50 32 8 1 5 1 19 24 4 35 4 2 0 0 0 0 0 0 0 0 4 5 41 100 100 41 95 100 91 25 92 54 5 5 5 5
100 100 100 100 100 100 100 100 100 100 96 83 100 81 4 4 0 5 3 5 3 27 43 10 5 0 0 0 0 0 0 0 0 0 5 4 4 62 99 94 100 100 100 98 12 15 16 50 7
100 100 100 100 99 100 100 95 96 95 100 28 94 100 51 0 0 5 5 4 5 2 25 6 4 0 0 0 0 0 0 0 0 0 0 1 17 3 0 42 48 91 97 37 79 50 3 0 0
100 100 100 100 96 100 100 100 100 100 98 91 39 23 1 0 4 73 100 100 5 4 1 15 10 0 0 0 0 0 0 0 0 0 0 0 6 80 100 77 96 14 5 5 3 1 0 0 0
95 100 100 100 100 100 100 100 100 100 100 54 56 76 76 1 4 100 100 100 62 3 4 3 5 5 10 5 2 0 0 0 0 0 0 0 0 0 0 0 0 0 0 0 0 1 5 12 91
25 100 100 100 100 97 100 98 99 100 100 100 53 100 100 18 7 63 100 100 100 9 0 5 7 5 5 7 7 4 0 0 0 0 0 0 0 0 0 0 0 0 0 0 0 0 0 0 0
8 99 100 100 100 3 10 16 44 78 100 100 100 12 89 100 83 0 10 99 98 91 5 5 5 5 6 5 5 10 1 0 0 0 0 2 0 0 0 0 0 0 0 0 0 0 0 0 0
100 83 100 100 100 76 11 53 95 100 100 100 100 100 99 100 100 75 2 22 100 87 98 14 5 40 94 92 77 5 10 3 0 0 39 23 0 0 0 0 0 10 0 0 0 0 0 0 0
100 100 100 100 100 64 100 49 87 100 100 100 100 100 100 100 16 10 5 35 6 93 100 100 99 76 95 93 89 82 7 5 36 1 2 0 53 38 12 90 3 89 91 100 95 99 100 100 100
100 100 100 100 80 100 60 63 100 100 100 100 100 98 100 100 54 5 2 9 91 5 66 100 100 100 36 98 96 97 42 5 5 5 5 5 11 72 11 100 99 36 99 93 96 100 95 83 95
65 100 100 100 100 100 100 56 98 100 100 100 100 100 42 100 99 12 38 5 29 40 5 29 83 100 91 10 78 91 74 9 5 5 10 51 54 24 5 19 5 5 34 1 0 0 0 0 0
4 99 100 100 100 100 100 100 18 100 100 100 100 85 5 17 92 98 70 28 92 68 36 17 10 46 55 12 98 73 62 99 78 23 42 5 39 15 8 6 5 5 22 5 5 5 4 5 5
0 36 100 100 100 100 100 100 100 100 100 100 100 100 49 5 76 100 17 83 82 100 9 41 5 5 12 100 23 62 63 78 98 100 88 62 71 100 74 54 6 6 5 17 32 24 72 55 73
0 0 9 56 99 50 95 100 100 100 100 100 100 100 70 16 42 100 63 88 43 14 94 100 17 4 89 27 100 68 28 57 87 100 100 100 100 99 100 99 71 47 6 5 5 32 64 100 59
0 0 0 0 4 66 73 9 74 100 100 100 100 100 100 100 100 100 100 98 100 98 7 14 48 53 36 31 39 100 97 100 100 100 100 93 100 82 88 96 96 71 39 30 12 84 100 100 100
0 0 0 0 0 0 5 64 4 78 100 72 27 99 100 100 100 76 78 100 100 98 10 100 5 5 5 5 78 47 100 94 100 95 73 91 68 45 23 79 61 58 100 100 100 100 100 100 100
5 0 0 0 0 0 4 88 44 0 3 4 2 3 4 20 100 88 100 100 100 82 98 100 100 68 24 40 32 8 39 100 88 29 34 76 44 39 6 39 93 93 26 12 67 100 100 100 100
1 4 0 0 5 0 55 100 51 4 41 5 4 0 0 0 84 100 100 100 100 100 97 97 100 100 96 82 88 62 36 46 63 70 49 62 95 100 84 11 5 20 34 49 13 18 99 100 100
0 0 4 2 0 4 99 42 100 19 2 3 5 4 1 0 0 29 99 100 100 100 100 100 100 87 16 36 27 46 94 100 78 7 6 80 90 100 84 60 35 18 30 11 10 5 58 100 100
0 0 0 0 5 0 91 22 0 28 46 5 5 5 91 5 0 4 90 93 98 97 100 100 100 100 100 81 78 100 83 100 100 91 48 5 38 99 88 5 7 7 20 19 5 5 30 82 100
0 0 0 0 0 58 5 1 0 0 0 5 0 4 3 64 9 6 59 11 42 100 82 100 100 100 98 99 99 100 100 100 99 97 81 69 100 62 52 95 98 95 12 13 36 39 39 62 80
0 0 0 0 0 1 73 46 0 3 0 3 0 5 18 3 0 4 100 50 12 100 100 100 100 86 42 97 100 100 100 100 88 66 83 78 21 27 5 78 99 100 66 23 21 38 80 96 100
0 0 0 0 0 0 42 100 6 99 33 58 52 89 79 5 0 0 1 0 0 4 100 99 100 100 42 100 100 97 44 100 100 100 100 92 59 49 47 20 75 100 97 13 27 99 100 100 100
0 0 0 0 0 0 0 65 83 5 70 71 3 100 67 16 0 2 0 0 0 5 100 100 98 100 100 100 100 66 94 96 100 100 100 100 70 64 5 10 72 46 85 9 99 100 100 100 100
2 2 0 0 0 0 0 0 29 100 54 43 96 62 2 0 1 74 24 1 0 52 100 74 78 99 100 100 100 100 99 85 100 100 100 100 100 100 82 27 17 70 100 63 67 100 100 100 100
74 47 85 31 0 0 0 0 0 9 100 100 100 100 43 2 0 0 51 99 4 4 5 0 3 40 100 76 82 100 100 75 79 100 100 100 100 100 80 100 98 100 85 93 99 100 100 100 100
5 45 100 100 38 5 2 0 0 0 6 100 100 100 100 4 0 27 9 5 0 0 0 0 95 4 28 82 23 5 98 100 100 97 53 100 98 100 100 100 100 100 100 100 100 99 100 100 100